TimeCST,TemperatureF,Dew PointF,Humidity,Sea Level PressureIn,VisibilityMPH,Wind Direction,Wind SpeedMPH,Gust SpeedMPH,PrecipitationIn,Events,Conditions,WindDirDegrees,DateUTC
12:53 AM,26.1,18.0,71,30.28,10.0,ENE,5.8,-,N/A,,Partly Cloudy,60,2013-02-21 06:53:00
1:53 AM,26.1,17.1,69,30.28,10.0,ENE,8.1,-,N/A,,Clear,60,2013-02-21 07:53:00
2:53 AM,26.1,17.1,69,30.28,10.0,ENE,8.1,-,N/A,,Clear,60,2013-02-21 08:53:00
3:53 AM,26.1,17.1,69,30.26,10.0,ENE,11.5,-,N/A,,Scattered Clouds,60,2013-02-21 09:53:00
4:53 AM,26.1,17.1,69,30.27,10.0,East,8.1,-,N/A,,Partly Cloudy,90,2013-02-21 10:53:00
5:53 AM,26.1,17.1,69,30.22,10.0,ENE,11.5,-,N/A,,Mostly Cloudy,70,2013-02-21 11:53:00
6:53 AM,26.1,17.1,69,30.20,10.0,East,15.0,-,N/A,,Clear,90,2013-02-21 12:53:00
7:53 AM,28.0,17.1,63,30.21,10.0,East,13.8,20.7,N/A,,Clear,90,2013-02-21 13:53:00
8:53 AM,30.0,18.0,61,30.19,10.0,East,13.8,-,N/A,,Overcast,80,2013-02-21 14:53:00
9:53 AM,32.0,18.0,56,30.15,10.0,East,15.0,-,N/A,,Mostly Cloudy,90,2013-02-21 15:53:00
10:53 AM,32.0,21.0,64,30.15,9.0,ENE,11.5,-,0.00,Rain,Light Rain,70,2013-02-21 16:53:00
11:53 AM,33.1,21.0,61,30.06,10.0,East,15.0,26.5,0.01,Rain,Light Rain,80,2013-02-21 17:53:00
12:53 PM,34.0,21.0,59,29.97,10.0,East,13.8,-,0.00,,Overcast,90,2013-02-21 18:53:00
1:51 PM,33.8,26.6,75,30.01,5.0,Variable,4.6,-,0.06,Rain,Light Freezing Rain,0,2013-02-21 19:51:00
1:53 PM,33.1,26.1,75,30.02,5.0,SE,3.5,-,0.06,Rain,Light Freezing Rain,130,2013-02-21 19:53:00
2:18 PM,33.8,28.4,81,30.04,2.5,North,4.6,-,0.08,Rain,Light Freezing Rain,350,2013-02-21 20:18:00
2:32 PM,32.0,28.4,87,30.02,3.0,NNE,9.2,-,0.13,Rain,Light Freezing Rain,30,2013-02-21 20:32:00
2:53 PM,32.0,28.9,88,30.02,3.0,NE,12.7,-,0.19,Rain,Light Freezing Rain,50,2013-02-21 20:53:00
3:07 PM,32.0,28.4,87,29.99,4.0,NE,16.1,-,0.03,Rain,Light Freezing Rain,50,2013-02-21 21:07:00
3:24 PM,32.0,28.4,87,29.99,3.0,NE,16.1,-,0.06,Rain,Light Freezing Rain,50,2013-02-21 21:24:00
3:41 PM,32.0,28.4,87,29.97,2.5,NE,16.1,-,0.15,Rain,Light Freezing Rain,50,2013-02-21 21:41:00
3:53 PM,32.0,28.9,88,29.98,2.5,ENE,15.0,24.2,0.22,Rain,Light Freezing Rain,60,2013-02-21 21:53:00
4:40 PM,32.0,28.4,87,29.88,3.0,East,21.9,27.6,0.20,Rain,Light Freezing Rain,80,2013-02-21 22:40:00
4:49 PM,32.0,28.4,87,29.89,2.5,East,20.7,29.9,0.23,Rain,Light Freezing Rain,80,2013-02-21 22:49:00
4:50 PM,32.0,28.9,88,29.89,2.5,East,20.7,29.9,0.23,Rain,Light Freezing Rain,80,2013-02-21 22:50:00
4:55 PM,32.0,28.4,87,29.86,3.0,East,21.9,29.9,0.00,,Overcast,90,2013-02-21 22:55:00
5:14 PM,32.0,28.4,87,29.86,2.5,East,23.0,38.0,0.05,Rain,Light Freezing Rain,80,2013-02-21 23:14:00
5:25 PM,32.0,30.2,93,29.89,4.0,ENE,11.5,29.9,0.07,Rain,Light Freezing Rain,70,2013-02-21 23:25:00
5:51 PM,33.8,30.2,87,29.89,3.0,East,13.8,-,0.09,Rain,Light Freezing Rain,100,2013-02-21 23:51:00
5:53 PM,33.1,30.0,89,29.90,2.5,ESE,17.3,-,0.10,Rain,Light Freezing Rain,110,2013-02-21 23:53:00
6:04 PM,33.8,30.2,87,29.90,2.5,ESE,18.4,24.2,0.04,Rain,Light Freezing Rain,110,2013-02-22 00:04:00
6:11 PM,33.8,30.2,87,29.90,2.5,East,15.0,23.0,0.07,Rain,Light Freezing Rain,100,2013-02-22 00:11:00
6:17 PM,33.8,30.2,87,29.90,3.0,East,10.4,19.6,0.09,Rain,Light Freezing Rain,80,2013-02-22 00:17:00
6:19 PM,33.8,30.2,87,29.91,4.0,East,8.1,19.6,0.09,Rain,Light Freezing Rain,90,2013-02-22 00:19:00
6:27 PM,33.8,30.2,87,29.89,5.0,East,12.7,18.4,0.10,Rain,Light Freezing Rain,90,2013-02-22 00:27:00
6:43 PM,33.8,30.2,87,29.90,5.0,East,11.5,-,0.10,Rain-Thunderstorm,Thunderstorms and Rain,90,2013-02-22 00:43:00
6:53 PM,33.1,30.9,92,29.90,5.0,East,15.0,19.6,0.11,Rain-Thunderstorm,Light Thunderstorms and Rain,90,2013-02-22 00:53:00
7:34 PM,33.8,30.2,87,29.87,4.0,East,15.0,-,0.01,,Overcast,100,2013-02-22 01:34:00
7:46 PM,33.8,30.2,87,29.88,3.0,East,11.5,20.7,0.01,Rain-Thunderstorm,Light Thunderstorms and Rain,80,2013-02-22 01:46:00
7:53 PM,33.1,30.9,92,29.93,2.5,NNW,9.2,18.4,0.10,Rain-Thunderstorm,Thunderstorms and Rain,340,2013-02-22 01:53:00
8:02 PM,33.8,30.2,87,29.88,4.0,East,10.4,-,0.00,Rain-Thunderstorm,Light Thunderstorms and Rain,80,2013-02-22 02:02:00
8:21 PM,33.8,30.2,87,29.88,5.0,East,8.1,-,0.01,Rain,Light Rain,80,2013-02-22 02:21:00
8:35 PM,33.8,32.0,93,29.89,2.5,East,10.4,-,0.07,Rain,Rain,100,2013-02-22 02:35:00
8:44 PM,33.8,32.0,93,29.88,4.0,ESE,10.4,-,0.07,Rain,Light Rain,110,2013-02-22 02:44:00
8:53 PM,33.1,32.0,96,29.88,3.0,ESE,10.4,-,0.09,Rain,Rain,110,2013-02-22 02:53:00
9:04 PM,33.8,32.0,93,29.86,4.0,East,10.4,-,0.02,Rain,Light Rain,100,2013-02-22 03:04:00
9:35 PM,33.8,32.0,93,29.83,5.0,ESE,12.7,-,0.02,,Overcast,110,2013-02-22 03:35:00
9:53 PM,34.0,33.1,96,29.84,4.0,East,9.2,-,0.02,,Overcast,100,2013-02-22 03:53:00
10:02 PM,33.8,33.8,100,29.84,5.0,ESE,11.5,-,N/A,,Overcast,110,2013-02-22 04:02:00
10:53 PM,35.1,34.0,96,29.84,5.0,SE,6.9,-,N/A,,Overcast,130,2013-02-22 04:53:00
11:12 PM,35.6,33.8,93,29.83,5.0,SSE,4.6,-,N/A,,Overcast,150,2013-02-22 05:12:00
11:53 PM,35.6,35.6,100,29.82,5.0,SE,3.5,-,N/A,,Overcast,140,2013-02-22 05:53:00